Location: Morisset
(33.1080°S, 151.4871°E)
Time: 08:07:21
(UTC+00:00)

SL-14 R/B - Pass Details

Date: 29 October 2020
Orbit: 517 x 555 km, 82.4° (Epoch: 27 November)

Event Time Altitude Azimuth Distance (km) Brightness Sun altitude
Rises 17:22:37 0° 185° (S) 2,682 7.2 -18.8°
Reaches altitude 10° 17:24:46 10° 183° (S) 1,788 6.3 -18.4°
Maximum altitude 17:28:42 76° 97° (E) 553 3.4 -17.7°
Drops below altitude 10° 17:32:36 10° 10° (N) 1,779 5.7 -17.0°
Enters shadow 17:34:00 - 9° (N) 2,356 6.3 -16.7°
